Year,Month,Day,Hour,Minute,Value (Times are PST for temperature in C)
2007,12,03,00,00,1.00
2007,12,03,00,01,1.00
2007,12,03,00,02,1.00
2007,12,03,00,03,1.00
2007,12,03,00,04,0.90
2007,12,03,00,05,0.90
2007,12,03,00,06,0.90
2007,12,03,00,07,0.90
2007,12,03,00,08,0.90
2007,12,03,00,09,0.90
2007,12,03,00,10,0.80
2007,12,03,00,11,0.80
2007,12,03,00,12,0.80
2007,12,03,00,13,0.80
2007,12,03,00,14,0.80
2007,12,03,00,15,0.80
2007,12,03,00,16,0.80
2007,12,03,00,17,0.80
2007,12,03,00,18,0.80
2007,12,03,00,19,0.80
2007,12,03,00,20,0.80
2007,12,03,00,21,0.80
2007,12,03,00,22,0.80
2007,12,03,00,23,0.80
2007,12,03,00,24,0.80
2007,12,03,00,25,0.80
2007,12,03,00,26,0.80
2007,12,03,00,27,0.80
2007,12,03,00,28,0.70
2007,12,03,00,29,0.70
2007,12,03,00,30,0.80
2007,12,03,00,31,0.70
2007,12,03,00,32,0.70
2007,12,03,00,33,0.70
2007,12,03,00,34,0.70
2007,12,03,00,35,0.70
2007,12,03,00,36,0.70
2007,12,03,00,37,0.70
2007,12,03,00,38,0.80
2007,12,03,00,39,0.80
2007,12,03,00,40,0.80
2007,12,03,00,41,0.80
2007,12,03,00,42,0.80
2007,12,03,00,43,0.80
2007,12,03,00,44,0.80
2007,12,03,00,45,0.80
2007,12,03,00,46,0.80
2007,12,03,00,47,0.90
2007,12,03,00,48,0.90
2007,12,03,00,49,0.90
2007,12,03,00,50,0.90
2007,12,03,00,51,0.90
2007,12,03,00,52,0.90
2007,12,03,00,53,0.90
2007,12,03,00,54,0.90
2007,12,03,00,55,0.90
2007,12,03,00,56,0.90
2007,12,03,00,57,0.90
2007,12,03,00,58,0.90
2007,12,03,00,59,0.90
2007,12,03,01,00,0.90
2007,12,03,01,01,0.90
2007,12,03,01,02,1.00
2007,12,03,01,03,1.00
2007,12,03,01,04,1.00
2007,12,03,01,05,1.10
2007,12,03,01,06,1.10
2007,12,03,01,07,1.10
2007,12,03,01,08,1.00
2007,12,03,01,09,1.00
2007,12,03,01,10,1.00
2007,12,03,01,11,0.90
2007,12,03,01,12,1.00
2007,12,03,01,13,1.00
2007,12,03,01,14,1.10
2007,12,03,01,15,1.10
2007,12,03,01,16,1.10
2007,12,03,01,17,1.00
2007,12,03,01,18,1.00
2007,12,03,01,19,1.00
2007,12,03,01,20,1.00
2007,12,03,01,21,0.90
2007,12,03,01,22,0.90
2007,12,03,01,23,0.80
2007,12,03,01,24,0.80
2007,12,03,01,25,0.80
2007,12,03,01,26,0.80
2007,12,03,01,27,0.80
2007,12,03,01,28,0.80
2007,12,03,01,29,0.80
2007,12,03,01,30,0.80
2007,12,03,01,31,0.80
2007,12,03,01,32,0.90
2007,12,03,01,33,0.80
2007,12,03,01,34,0.80
2007,12,03,01,35,0.80
2007,12,03,01,36,0.80
2007,12,03,01,37,0.80
2007,12,03,01,38,0.80
2007,12,03,01,39,0.90
2007,12,03,01,40,0.90
2007,12,03,01,41,0.90
2007,12,03,01,42,0.90
2007,12,03,01,43,0.90
2007,12,03,01,44,1.00
2007,12,03,01,45,1.00
2007,12,03,01,46,0.90
2007,12,03,01,47,0.90
2007,12,03,01,48,0.90
2007,12,03,01,49,0.80
2007,12,03,01,50,0.80
2007,12,03,01,51,0.80
2007,12,03,01,52,0.90
2007,12,03,01,53,0.90
2007,12,03,01,54,0.90
2007,12,03,01,55,0.90
2007,12,03,01,56,0.90
2007,12,03,01,57,0.90
2007,12,03,01,58,0.90
2007,12,03,01,59,0.90
2007,12,03,02,00,1.00
2007,12,03,02,01,1.00
2007,12,03,02,02,1.10
2007,12,03,02,03,1.10
2007,12,03,02,04,1.20
2007,12,03,02,05,1.20
2007,12,03,02,06,1.20
2007,12,03,02,07,1.30
2007,12,03,02,08,1.30
2007,12,03,02,09,1.30
2007,12,03,02,10,1.30
2007,12,03,02,11,1.30
2007,12,03,02,12,1.20
2007,12,03,02,13,1.20
2007,12,03,02,14,1.20
2007,12,03,02,15,1.20
2007,12,03,02,16,1.20
2007,12,03,02,17,1.10
2007,12,03,02,18,1.20
2007,12,03,02,19,1.20
2007,12,03,02,20,1.20
2007,12,03,02,21,1.20
2007,12,03,02,22,1.20
2007,12,03,02,23,1.20
2007,12,03,02,24,1.20
2007,12,03,02,25,1.20
2007,12,03,02,26,1.20
2007,12,03,02,27,1.20
2007,12,03,02,28,1.20
2007,12,03,02,29,1.20
2007,12,03,02,30,1.20
2007,12,03,02,31,1.30
2007,12,03,02,32,1.30
2007,12,03,02,33,1.30
2007,12,03,02,34,1.30
2007,12,03,02,35,1.30
2007,12,03,02,36,1.30
2007,12,03,02,37,1.30
2007,12,03,02,38,1.30
2007,12,03,02,39,1.40
2007,12,03,02,40,1.40
2007,12,03,02,41,1.40
2007,12,03,02,42,1.50
2007,12,03,02,43,1.50
2007,12,03,02,44,1.50
2007,12,03,02,45,1.50
2007,12,03,02,46,1.50
2007,12,03,02,47,1.40
2007,12,03,02,48,1.40
2007,12,03,02,49,1.40
2007,12,03,02,50,1.30
2007,12,03,02,51,1.30
2007,12,03,02,52,1.30
2007,12,03,02,53,1.30
2007,12,03,02,54,1.30
2007,12,03,02,55,1.30
2007,12,03,02,56,1.30
2007,12,03,02,57,1.30
2007,12,03,02,58,1.30
2007,12,03,02,59,1.30
2007,12,03,03,00,1.30
2007,12,03,03,01,1.30
2007,12,03,03,02,1.30
2007,12,03,03,03,1.30
2007,12,03,03,04,1.30
2007,12,03,03,05,1.30
2007,12,03,03,06,1.30
2007,12,03,03,07,1.30
2007,12,03,03,08,1.30
2007,12,03,03,09,1.30
2007,12,03,03,10,1.40
2007,12,03,03,11,1.40
2007,12,03,03,12,1.40
2007,12,03,03,13,1.40
2007,12,03,03,14,1.40
2007,12,03,03,15,1.40
2007,12,03,03,16,1.40
2007,12,03,03,17,1.40
2007,12,03,03,18,1.50
2007,12,03,03,19,1.50
2007,12,03,03,20,1.50
2007,12,03,03,21,1.50
2007,12,03,03,22,1.40
2007,12,03,03,23,1.50
2007,12,03,03,24,1.60
2007,12,03,03,25,1.60
2007,12,03,03,26,1.70
2007,12,03,03,27,1.70
2007,12,03,03,28,1.80
2007,12,03,03,29,1.90
2007,12,03,03,30,1.90
2007,12,03,03,31,2.00
2007,12,03,03,32,1.90
2007,12,03,03,33,1.90
2007,12,03,03,34,1.80
2007,12,03,03,35,1.80
2007,12,03,03,36,1.80
2007,12,03,03,37,1.90
2007,12,03,03,38,1.90
2007,12,03,03,39,1.90
2007,12,03,03,40,2.00
2007,12,03,03,41,2.10
2007,12,03,03,42,2.20
2007,12,03,03,43,2.30
2007,12,03,03,44,2.30
2007,12,03,03,45,2.30
2007,12,03,03,46,2.40
2007,12,03,03,47,2.40
2007,12,03,03,48,2.50
2007,12,03,03,49,2.40
2007,12,03,03,50,2.40
2007,12,03,03,51,2.40
2007,12,03,03,52,2.40
2007,12,03,03,53,2.40
2007,12,03,03,54,2.40
2007,12,03,03,55,2.40
2007,12,03,03,56,2.40
2007,12,03,03,57,2.40
2007,12,03,03,58,2.40
2007,12,03,03,59,2.50
2007,12,03,04,00,2.50
2007,12,03,04,01,2.50
2007,12,03,04,02,2.50
2007,12,03,04,03,2.40
2007,12,03,04,04,2.40
2007,12,03,04,05,2.40
2007,12,03,04,06,2.40
2007,12,03,04,07,2.30
2007,12,03,04,08,2.30
2007,12,03,04,09,2.20
2007,12,03,04,10,2.30
2007,12,03,04,11,2.30
2007,12,03,04,12,2.40
2007,12,03,04,13,2.40
2007,12,03,04,14,2.40
2007,12,03,04,15,2.40
2007,12,03,04,16,2.40
2007,12,03,04,17,2.30
2007,12,03,04,18,2.30
2007,12,03,04,19,2.30
2007,12,03,04,20,2.30
2007,12,03,04,21,2.40
2007,12,03,04,22,2.30
2007,12,03,04,23,2.40
2007,12,03,04,24,2.50
2007,12,03,04,25,2.50
2007,12,03,04,26,2.50
2007,12,03,04,27,2.40
2007,12,03,04,28,2.30
2007,12,03,04,29,2.40
2007,12,03,04,30,2.40
2007,12,03,04,31,2.60
2007,12,03,04,32,2.70
2007,12,03,04,33,2.70
2007,12,03,04,34,2.70
2007,12,03,04,35,2.60
2007,12,03,04,36,2.60
2007,12,03,04,37,2.50
2007,12,03,04,38,2.60
2007,12,03,04,39,2.50
2007,12,03,04,40,2.50
2007,12,03,04,41,2.60
2007,12,03,04,42,2.70
2007,12,03,04,43,2.80
2007,12,03,04,44,3.00
2007,12,03,04,45,3.10
2007,12,03,04,46,3.20
2007,12,03,04,47,3.30
2007,12,03,04,48,3.40
2007,12,03,04,49,3.40
2007,12,03,04,50,3.50
2007,12,03,04,51,3.50
2007,12,03,04,52,3.70
2007,12,03,04,53,3.80
2007,12,03,04,54,3.90
2007,12,03,04,55,4.10
2007,12,03,04,56,4.10
2007,12,03,04,57,4.00
2007,12,03,04,58,4.00
2007,12,03,04,59,4.10
2007,12,03,05,00,4.00
2007,12,03,05,01,3.80
2007,12,03,05,02,3.60
2007,12,03,05,03,3.50
2007,12,03,05,04,3.80
2007,12,03,05,05,4.10
2007,12,03,05,06,4.30
2007,12,03,05,07,4.60
2007,12,03,05,08,4.50
2007,12,03,05,09,4.50
2007,12,03,05,10,4.80
2007,12,03,05,11,5.30
2007,12,03,05,12,6.00
2007,12,03,05,13,6.40
2007,12,03,05,14,6.50
2007,12,03,05,15,6.60
2007,12,03,05,16,6.50
2007,12,03,05,17,6.50
2007,12,03,05,18,6.80
2007,12,03,05,19,7.00
2007,12,03,05,20,7.00
2007,12,03,05,21,6.90
2007,12,03,05,22,6.90
2007,12,03,05,23,7.00
2007,12,03,05,24,7.60
2007,12,03,05,25,7.60
2007,12,03,05,26,7.70
2007,12,03,05,27,7.70
2007,12,03,05,28,7.70
2007,12,03,05,29,7.70
2007,12,03,05,30,7.70
2007,12,03,05,31,7.50
2007,12,03,05,32,7.50
2007,12,03,05,33,7.60
2007,12,03,05,34,7.70
2007,12,03,05,35,8.10
2007,12,03,05,36,8.80
2007,12,03,05,37,9.40
2007,12,03,05,38,9.70
2007,12,03,05,39,9.80
2007,12,03,05,40,9.90
2007,12,03,05,41,10.10
2007,12,03,05,42,10.20
2007,12,03,05,43,10.20
2007,12,03,05,44,10.20
2007,12,03,05,45,10.30
2007,12,03,05,46,10.60
2007,12,03,05,47,10.60
2007,12,03,05,48,10.60
2007,12,03,05,49,10.60
2007,12,03,05,50,10.30
2007,12,03,05,51,10.50
2007,12,03,05,52,10.70
2007,12,03,05,53,10.80
2007,12,03,05,54,10.70
2007,12,03,05,55,10.70
2007,12,03,05,56,10.90
2007,12,03,05,57,11.00
2007,12,03,05,58,11.30
2007,12,03,05,59,11.60
2007,12,03,06,00,11.60
2007,12,03,06,01,11.60
2007,12,03,06,02,11.50
2007,12,03,06,03,11.30
2007,12,03,06,04,11.50
2007,12,03,06,05,11.60
2007,12,03,06,06,11.50
2007,12,03,06,07,11.40
2007,12,03,06,08,11.50
2007,12,03,06,09,11.60
2007,12,03,06,10,11.60
2007,12,03,06,11,11.60
2007,12,03,06,12,11.50
2007,12,03,06,13,11.50
2007,12,03,06,14,11.60
2007,12,03,06,15,11.70
2007,12,03,06,16,11.60
2007,12,03,06,17,11.60
2007,12,03,06,18,11.50
2007,12,03,06,19,11.40
2007,12,03,06,20,11.30
2007,12,03,06,21,11.30
2007,12,03,06,22,11.30
2007,12,03,06,23,11.40
2007,12,03,06,24,11.60
2007,12,03,06,25,11.70
2007,12,03,06,26,11.70
2007,12,03,06,27,11.50
2007,12,03,06,28,11.40
2007,12,03,06,29,11.40
2007,12,03,06,30,11.50
2007,12,03,06,31,11.70
2007,12,03,06,32,11.80
2007,12,03,06,33,11.80
2007,12,03,06,34,11.90
2007,12,03,06,35,11.80
2007,12,03,06,36,11.70
2007,12,03,06,37,11.70
2007,12,03,06,38,11.70
2007,12,03,06,39,11.70
2007,12,03,06,40,11.80
2007,12,03,06,41,11.80
2007,12,03,06,42,11.80
2007,12,03,06,43,11.70
2007,12,03,06,44,11.60
2007,12,03,06,45,11.50
2007,12,03,06,46,11.30
2007,12,03,06,47,11.20
2007,12,03,06,48,11.30
2007,12,03,06,49,11.30
2007,12,03,06,50,11.10
2007,12,03,06,51,11.00
2007,12,03,06,52,10.90
2007,12,03,06,53,10.80
2007,12,03,06,54,10.90
2007,12,03,06,55,11.00
2007,12,03,06,56,11.00
2007,12,03,06,57,11.00
2007,12,03,06,58,11.30
2007,12,03,06,59,11.50
2007,12,03,07,00,11.70
2007,12,03,07,01,11.80
2007,12,03,07,02,11.80
2007,12,03,07,03,11.70
2007,12,03,07,04,11.60
2007,12,03,07,05,11.60
2007,12,03,07,06,11.50
2007,12,03,07,07,11.50
2007,12,03,07,08,11.50
2007,12,03,07,09,11.30
2007,12,03,07,10,11.20
2007,12,03,07,11,11.10
2007,12,03,07,12,11.20
2007,12,03,07,13,11.50
2007,12,03,07,14,11.80
2007,12,03,07,15,11.90
2007,12,03,07,16,12.10
2007,12,03,07,17,12.00
2007,12,03,07,18,11.90
2007,12,03,07,19,12.00
2007,12,03,07,20,11.90
2007,12,03,07,21,11.80
2007,12,03,07,22,11.80
2007,12,03,07,23,11.70
2007,12,03,07,24,11.60
2007,12,03,07,25,11.50
2007,12,03,07,26,11.40
2007,12,03,07,27,11.30
2007,12,03,07,28,11.10
2007,12,03,07,29,10.90
2007,12,03,07,30,10.90
2007,12,03,07,31,10.90
2007,12,03,07,32,10.90
2007,12,03,07,33,11.00
2007,12,03,07,34,11.20
2007,12,03,07,35,11.30
2007,12,03,07,36,11.30
2007,12,03,07,37,11.30
2007,12,03,07,38,11.20
2007,12,03,07,39,10.90
2007,12,03,07,40,10.80
2007,12,03,07,41,10.60
2007,12,03,07,42,10.60
2007,12,03,07,43,10.90
2007,12,03,07,44,11.20
2007,12,03,07,45,11.40
2007,12,03,07,46,11.50
2007,12,03,07,47,11.80
2007,12,03,07,48,11.90
2007,12,03,07,49,11.90
2007,12,03,07,50,11.80
2007,12,03,07,51,11.80
2007,12,03,07,52,11.70
2007,12,03,07,53,11.70
2007,12,03,07,54,11.60
2007,12,03,07,55,11.60
2007,12,03,07,56,11.50
2007,12,03,07,57,11.40
2007,12,03,07,58,11.30
2007,12,03,07,59,11.50
2007,12,03,08,00,11.80
2007,12,03,08,01,11.80
2007,12,03,08,02,11.80
2007,12,03,08,03,12.00
2007,12,03,08,04,12.00
2007,12,03,08,05,11.80
2007,12,03,08,06,11.80
2007,12,03,08,07,11.80
2007,12,03,08,08,11.70
2007,12,03,08,09,11.80
2007,12,03,08,10,11.90
2007,12,03,08,11,11.90
2007,12,03,08,12,11.90
2007,12,03,08,13,11.80
2007,12,03,08,14,11.60
2007,12,03,08,15,11.60
2007,12,03,08,16,11.50
2007,12,03,08,17,11.40
2007,12,03,08,18,11.20
2007,12,03,08,19,10.80
2007,12,03,08,20,10.60
2007,12,03,08,21,10.80
2007,12,03,08,22,11.00
2007,12,03,08,23,11.20
2007,12,03,08,24,11.20
2007,12,03,08,25,11.10
2007,12,03,08,26,11.20
2007,12,03,08,27,11.30
2007,12,03,08,28,11.50
2007,12,03,08,29,11.40
2007,12,03,08,30,11.50
2007,12,03,08,31,11.60
2007,12,03,08,32,11.80
2007,12,03,08,33,12.00
2007,12,03,08,34,11.90
2007,12,03,08,35,11.70
2007,12,03,08,36,11.70
2007,12,03,08,37,11.50
2007,12,03,08,38,11.40
2007,12,03,08,39,11.40
2007,12,03,08,40,11.40
2007,12,03,08,41,11.30
2007,12,03,08,42,11.20
2007,12,03,08,43,11.20
2007,12,03,08,44,11.10
2007,12,03,08,45,11.10
2007,12,03,08,46,11.00
2007,12,03,08,47,10.70
2007,12,03,08,48,10.60
2007,12,03,08,49,10.70
2007,12,03,08,50,10.80
2007,12,03,08,51,10.90
2007,12,03,08,52,11.00
2007,12,03,08,53,11.00
2007,12,03,08,54,10.90
2007,12,03,08,55,10.90
2007,12,03,08,56,11.10
2007,12,03,08,57,11.30
2007,12,03,08,58,11.40
2007,12,03,08,59,11.50
2007,12,03,09,00,11.50
2007,12,03,09,01,11.50
2007,12,03,09,02,11.40
2007,12,03,09,03,11.40
2007,12,03,09,04,11.40
2007,12,03,09,05,11.30
2007,12,03,09,06,11.20
2007,12,03,09,07,11.20
2007,12,03,09,08,11.20
2007,12,03,09,09,11.10
2007,12,03,09,10,10.90
2007,12,03,09,11,10.80
2007,12,03,09,12,10.80
2007,12,03,09,13,10.60
2007,12,03,09,14,10.40
2007,12,03,09,15,10.40
2007,12,03,09,16,10.60
2007,12,03,09,17,10.90
2007,12,03,09,18,11.40
2007,12,03,09,19,11.60
2007,12,03,09,20,12.00
2007,12,03,09,21,12.10
2007,12,03,09,22,12.10
2007,12,03,09,23,12.00
2007,12,03,09,24,11.70
2007,12,03,09,25,11.30
2007,12,03,09,26,11.10
2007,12,03,09,27,10.90
2007,12,03,09,28,10.80
2007,12,03,09,29,10.70
2007,12,03,09,30,10.60
2007,12,03,09,31,10.50
2007,12,03,09,32,10.40
2007,12,03,09,33,10.20
2007,12,03,09,34,10.20
2007,12,03,09,35,10.10
2007,12,03,09,36,10.10
2007,12,03,09,37,10.10
2007,12,03,09,38,10.10
2007,12,03,09,39,10.20
2007,12,03,09,40,10.10
2007,12,03,09,41,9.90
2007,12,03,09,42,9.90
2007,12,03,09,43,9.90
2007,12,03,09,44,9.90
2007,12,03,09,45,9.80
2007,12,03,09,46,10.10
2007,12,03,09,47,10.30
2007,12,03,09,48,10.50
2007,12,03,09,49,10.70
2007,12,03,09,50,10.80
2007,12,03,09,51,10.80
2007,12,03,09,52,10.80
2007,12,03,09,53,10.80
2007,12,03,09,54,10.90
2007,12,03,09,55,11.10
2007,12,03,09,56,11.20
2007,12,03,09,57,11.30
2007,12,03,09,58,11.30
2007,12,03,09,59,11.30
2007,12,03,10,00,11.40
2007,12,03,10,01,11.50
2007,12,03,10,02,11.60
2007,12,03,10,03,11.60
2007,12,03,10,04,11.30
2007,12,03,10,05,11.20
2007,12,03,10,06,11.30
2007,12,03,10,07,11.20
2007,12,03,10,08,11.20
2007,12,03,10,09,11.10
2007,12,03,10,10,11.00
2007,12,03,10,11,11.00
2007,12,03,10,12,10.90
2007,12,03,10,13,10.80
2007,12,03,10,14,11.20
2007,12,03,10,15,11.60
2007,12,03,10,16,11.70
2007,12,03,10,17,11.60
2007,12,03,10,18,11.60
2007,12,03,10,19,11.60
2007,12,03,10,20,11.70
2007,12,03,10,21,11.60
2007,12,03,10,22,11.50
2007,12,03,10,23,11.30
2007,12,03,10,24,11.20
2007,12,03,10,25,11.10
2007,12,03,10,26,10.90
2007,12,03,10,27,10.70
2007,12,03,10,28,10.70
2007,12,03,10,29,10.70
2007,12,03,10,30,10.50
2007,12,03,11,49,11.60
2007,12,03,11,50,11.50
2007,12,03,11,51,11.40
2007,12,03,11,52,11.50
2007,12,03,11,53,11.60
2007,12,03,11,54,11.60
2007,12,03,11,55,11.50
2007,12,03,11,56,11.50
2007,12,03,11,57,11.40
2007,12,03,11,58,11.40
2007,12,03,11,59,11.40
2007,12,03,12,00,11.30
2007,12,03,12,01,11.60
2007,12,03,12,02,11.90
2007,12,03,12,03,11.90
2007,12,03,12,04,11.90
2007,12,03,12,05,11.80
2007,12,03,12,06,11.80
2007,12,03,12,07,11.80
2007,12,03,12,08,11.80
2007,12,03,12,09,11.70
2007,12,03,12,10,11.60
2007,12,03,12,11,11.50
2007,12,03,12,12,11.30
2007,12,03,12,13,11.30
2007,12,03,12,14,11.60
2007,12,03,12,15,11.80
2007,12,03,12,16,11.90
2007,12,03,12,17,11.90
2007,12,03,12,18,11.90
2007,12,03,12,19,11.90
2007,12,03,12,20,11.90
2007,12,03,12,21,11.90
2007,12,03,12,22,11.80
2007,12,03,12,23,11.80
2007,12,03,12,24,11.80
2007,12,03,12,25,11.90
2007,12,03,12,26,12.00
2007,12,03,12,27,12.20
2007,12,03,12,28,12.30
2007,12,03,12,29,12.40
2007,12,03,12,30,12.40
2007,12,03,12,31,12.30
2007,12,03,12,32,12.20
2007,12,03,12,33,12.10
2007,12,03,12,34,12.10
2007,12,03,12,35,12.10
2007,12,03,12,36,12.00
2007,12,03,12,37,12.00
2007,12,03,12,38,11.90
2007,12,03,12,39,11.80
2007,12,03,12,40,11.80
2007,12,03,12,41,11.80
2007,12,03,12,42,11.80
2007,12,03,12,43,11.90
2007,12,03,12,44,11.90
2007,12,03,12,45,11.80
2007,12,03,12,46,11.80
2007,12,03,12,47,11.80
2007,12,03,12,48,11.80
2007,12,03,12,49,11.80
2007,12,03,12,50,11.70
2007,12,03,12,51,11.70
2007,12,03,12,52,11.60
2007,12,03,12,53,11.60
2007,12,03,12,54,11.60
2007,12,03,12,55,11.50
2007,12,03,12,56,11.40
2007,12,03,12,57,11.40
2007,12,03,12,58,11.30
2007,12,03,12,59,11.40
2007,12,03,13,00,11.40
2007,12,03,13,01,11.40
2007,12,03,13,02,11.40
2007,12,03,13,03,11.50
2007,12,03,13,04,11.50
2007,12,03,13,05,11.60
2007,12,03,13,06,11.60
2007,12,03,13,07,11.60
2007,12,03,13,08,11.60
2007,12,03,13,09,11.60
2007,12,03,13,10,11.70
2007,12,03,13,11,11.70
2007,12,03,13,12,11.70
2007,12,03,13,13,11.70
2007,12,03,13,14,11.70
2007,12,03,13,15,11.70
2007,12,03,13,16,11.60
2007,12,03,13,17,11.60
2007,12,03,13,18,11.60
2007,12,03,13,19,11.60
2007,12,03,13,20,11.70
2007,12,03,13,21,11.70
2007,12,03,13,22,11.70
2007,12,03,13,23,11.70
2007,12,03,13,24,11.60
2007,12,03,13,25,11.60
2007,12,03,13,26,11.60
2007,12,03,13,27,11.60
2007,12,03,13,28,11.60
2007,12,03,13,29,11.60
2007,12,03,13,30,11.60
2007,12,03,13,31,11.60
2007,12,03,13,32,11.60
2007,12,03,13,33,11.60
2007,12,03,13,34,11.60
2007,12,03,13,35,11.60
2007,12,03,13,36,11.60
2007,12,03,13,37,11.50
2007,12,03,13,38,11.50
2007,12,03,13,39,11.50
2007,12,03,13,40,11.60
2007,12,03,13,41,11.60
2007,12,03,13,42,11.70
2007,12,03,13,43,11.70
2007,12,03,13,44,11.70
2007,12,03,13,45,11.70
2007,12,03,13,46,11.70
2007,12,03,13,47,11.60
2007,12,03,13,48,11.70
2007,12,03,13,49,11.70
2007,12,03,13,50,11.70
2007,12,03,13,51,11.70
2007,12,03,13,52,11.60
2007,12,03,13,53,11.60
2007,12,03,13,54,11.50
2007,12,03,13,55,11.50
2007,12,03,13,56,11.40
2007,12,03,13,57,11.40
2007,12,03,13,58,11.40
2007,12,03,13,59,11.40
2007,12,03,14,00,11.30
2007,12,03,14,01,11.30
2007,12,03,14,02,11.30
2007,12,03,14,03,11.30
2007,12,03,14,04,11.40
2007,12,03,14,05,11.40
2007,12,03,14,06,11.50
2007,12,03,14,07,11.60
2007,12,03,14,08,11.80
2007,12,03,14,09,11.90
2007,12,03,14,10,12.00
2007,12,03,14,11,12.10
2007,12,03,14,12,12.20
2007,12,03,14,13,12.20
2007,12,03,14,14,12.10
2007,12,03,14,15,12.00
2007,12,03,14,16,11.90
2007,12,03,14,17,11.80
2007,12,03,14,18,11.80
2007,12,03,14,19,11.70
2007,12,03,14,20,11.60
2007,12,03,14,21,11.50
2007,12,03,14,22,11.40
2007,12,03,14,23,11.30
2007,12,03,14,24,11.20
2007,12,03,14,25,11.20
2007,12,03,14,26,11.10
2007,12,03,14,27,11.00
2007,12,03,14,28,10.90
2007,12,03,14,29,11.00
2007,12,03,14,30,11.00
2007,12,03,14,31,10.90
2007,12,03,14,32,10.90
2007,12,03,14,33,10.80
2007,12,03,14,34,10.90
2007,12,03,14,35,11.10
2007,12,03,14,36,11.30
2007,12,03,14,37,11.50
2007,12,03,14,38,11.70
2007,12,03,14,39,11.90
2007,12,03,14,40,12.10
2007,12,03,14,41,12.30
2007,12,03,14,42,12.30
2007,12,03,14,43,12.20
2007,12,03,14,44,12.10
2007,12,03,14,45,12.00
2007,12,03,14,46,12.00
2007,12,03,14,47,11.90
2007,12,03,14,48,11.80
2007,12,03,14,49,11.70
2007,12,03,14,50,11.60
2007,12,03,14,51,11.40
2007,12,03,14,52,11.30
2007,12,03,14,53,11.30
2007,12,03,14,54,11.30
2007,12,03,14,55,11.30
2007,12,03,14,56,11.20
2007,12,03,14,57,11.20
2007,12,03,14,58,11.20
2007,12,03,14,59,11.40
2007,12,03,15,00,11.40
2007,12,03,15,01,11.50
2007,12,03,15,02,11.50
2007,12,03,15,03,11.30
2007,12,03,15,04,11.10
2007,12,03,15,05,10.90
2007,12,03,15,06,10.80
2007,12,03,15,07,10.80
2007,12,03,15,08,10.80
2007,12,03,15,09,10.80
2007,12,03,15,10,10.90
2007,12,03,15,11,11.00
2007,12,03,15,12,11.20
2007,12,03,15,13,11.30
2007,12,03,15,14,11.40
2007,12,03,15,15,11.50
2007,12,03,15,16,11.50
2007,12,03,15,17,11.60
2007,12,03,15,18,11.70
2007,12,03,15,19,11.80
2007,12,03,15,20,12.00
2007,12,03,15,21,12.00
2007,12,03,15,22,11.90
2007,12,03,15,23,11.90
2007,12,03,15,24,11.90
2007,12,03,15,25,11.90
2007,12,03,15,26,11.90
2007,12,03,15,27,11.90
2007,12,03,15,28,11.80
2007,12,03,15,29,11.70
2007,12,03,15,30,11.60
2007,12,03,15,31,11.60
2007,12,03,15,32,11.70
2007,12,03,15,33,11.70
2007,12,03,15,34,11.80
2007,12,03,15,35,11.80
2007,12,03,15,36,11.80
2007,12,03,15,37,11.80
2007,12,03,15,38,11.60
2007,12,03,15,39,11.50
2007,12,03,15,40,11.40
2007,12,03,15,41,11.30
2007,12,03,15,42,11.30
2007,12,03,15,43,11.20
2007,12,03,15,44,11.20
2007,12,03,15,45,11.20
2007,12,03,15,46,11.10
2007,12,03,15,47,11.00
2007,12,03,15,48,10.90
2007,12,03,15,49,10.80
2007,12,03,15,50,10.80
2007,12,03,15,51,10.80
2007,12,03,15,52,10.80
2007,12,03,15,53,10.70
2007,12,03,15,54,10.60
2007,12,03,15,55,10.60
2007,12,03,15,56,10.60
2007,12,03,15,57,10.60
2007,12,03,15,58,10.60
2007,12,03,15,59,10.60
2007,12,03,16,00,10.70
2007,12,03,16,01,10.80
2007,12,03,16,02,10.70
2007,12,03,16,03,10.70
2007,12,03,16,04,10.60
2007,12,03,16,05,10.60
2007,12,03,16,06,10.70
2007,12,03,16,07,10.70
2007,12,03,16,08,10.60
2007,12,03,16,09,10.60
2007,12,03,16,10,10.70
2007,12,03,16,11,10.80
2007,12,03,16,12,10.90
2007,12,03,16,13,11.00
2007,12,03,16,14,11.20
2007,12,03,16,15,11.30
2007,12,03,16,16,11.30
2007,12,03,16,17,11.30
2007,12,03,16,18,11.40
2007,12,03,16,19,11.50
2007,12,03,16,20,11.70
2007,12,03,16,21,11.90
2007,12,03,16,22,12.20
2007,12,03,16,23,12.40
2007,12,03,16,24,12.50
2007,12,03,16,25,12.80
2007,12,03,16,26,13.00
2007,12,03,16,27,13.10
2007,12,03,16,28,13.10
2007,12,03,16,29,13.20
2007,12,03,16,30,13.20
2007,12,03,16,31,13.10
2007,12,03,16,32,13.00
2007,12,03,16,33,13.00
2007,12,03,16,34,12.90
2007,12,03,16,35,12.80
2007,12,03,16,36,12.80
2007,12,03,16,37,12.80
2007,12,03,16,38,12.70
2007,12,03,16,39,12.60
2007,12,03,16,40,12.50
2007,12,03,16,41,12.40
2007,12,03,16,42,12.40
2007,12,03,16,43,12.60
2007,12,03,16,44,12.70
2007,12,03,16,45,12.80
2007,12,03,16,46,12.80
2007,12,03,16,47,12.80
2007,12,03,16,48,12.80
2007,12,03,16,49,12.80
2007,12,03,16,50,12.80
2007,12,03,16,51,12.80
2007,12,03,16,52,12.80
2007,12,03,16,53,12.80
2007,12,03,16,54,12.80
2007,12,03,16,55,12.80
2007,12,03,16,56,12.70
2007,12,03,16,57,12.60
2007,12,03,16,58,12.50
2007,12,03,16,59,12.50
2007,12,03,17,00,12.60
2007,12,03,17,01,12.60
2007,12,03,17,02,12.70
2007,12,03,17,03,12.70
2007,12,03,17,04,12.70
2007,12,03,17,05,12.70
2007,12,03,17,06,12.70
2007,12,03,17,07,12.70
2007,12,03,17,08,12.70
2007,12,03,17,09,12.70
2007,12,03,17,10,12.90
2007,12,03,17,11,13.10
2007,12,03,17,12,13.10
2007,12,03,17,13,13.20
2007,12,03,17,14,13.10
2007,12,03,17,15,12.90
2007,12,03,17,16,12.90
2007,12,03,17,17,12.70
2007,12,03,17,18,12.80
2007,12,03,17,19,12.80
2007,12,03,17,20,12.80
2007,12,03,17,21,12.80
2007,12,03,17,22,12.90
2007,12,03,17,23,13.00
2007,12,03,17,24,13.00
2007,12,03,17,25,13.00
2007,12,03,17,26,12.90
2007,12,03,17,27,13.10
2007,12,03,17,28,13.30
2007,12,03,17,29,13.50
2007,12,03,17,30,13.60
2007,12,03,17,31,13.50
2007,12,03,17,32,13.50
2007,12,03,17,33,13.30
2007,12,03,17,34,13.20
2007,12,03,17,35,12.90
2007,12,03,17,36,12.70
2007,12,03,17,37,12.70
2007,12,03,17,38,12.50
2007,12,03,17,39,12.40
2007,12,03,17,40,12.20
2007,12,03,17,41,12.10
2007,12,03,17,42,12.10
2007,12,03,17,43,12.00
2007,12,03,17,44,11.90
2007,12,03,17,45,11.70
2007,12,03,17,46,11.90
2007,12,03,17,47,12.30
2007,12,03,17,48,12.70
2007,12,03,17,49,12.90
2007,12,03,17,50,12.90
2007,12,03,17,51,12.90
2007,12,03,17,52,12.90
2007,12,03,17,53,12.90
2007,12,03,17,54,12.80
2007,12,03,17,55,12.60
2007,12,03,17,56,12.50
2007,12,03,17,57,12.40
2007,12,03,17,58,12.50
2007,12,03,17,59,12.60
2007,12,03,18,00,12.60
2007,12,03,18,01,12.50
2007,12,03,18,02,12.30
2007,12,03,18,03,12.10
2007,12,03,18,04,12.00
2007,12,03,18,05,12.00
2007,12,03,18,06,12.10
2007,12,03,18,07,12.20
2007,12,03,18,08,12.10
2007,12,03,18,09,12.10
2007,12,03,18,10,12.10
2007,12,03,18,11,12.20
2007,12,03,18,12,12.10
2007,12,03,18,13,12.10
2007,12,03,18,14,12.10
2007,12,03,18,15,12.20
2007,12,03,18,16,12.30
2007,12,03,18,17,12.30
2007,12,03,18,18,12.20
2007,12,03,18,19,12.20
2007,12,03,18,20,12.30
2007,12,03,18,21,12.30
2007,12,03,18,22,12.40
2007,12,03,18,23,12.50
2007,12,03,18,24,12.60
2007,12,03,18,25,12.50
2007,12,03,18,26,12.50
2007,12,03,18,27,12.40
2007,12,03,18,28,12.30
2007,12,03,18,29,12.30
2007,12,03,18,30,12.30
2007,12,03,18,31,12.30
2007,12,03,18,32,12.60
2007,12,03,18,33,12.70
2007,12,03,18,34,12.70
2007,12,03,18,35,12.70
2007,12,03,18,36,12.60
2007,12,03,18,37,12.60
2007,12,03,18,38,12.40
2007,12,03,18,39,12.20
2007,12,03,18,40,12.10
2007,12,03,18,41,12.10
2007,12,03,18,42,11.80
2007,12,03,18,43,11.70
2007,12,03,18,44,11.60
2007,12,03,18,45,11.60
2007,12,03,18,46,11.70
2007,12,03,18,47,11.90
2007,12,03,18,48,12.20
2007,12,03,18,49,12.40
2007,12,03,18,50,12.60
2007,12,03,18,51,12.70
2007,12,03,18,52,12.80